TimeAKST,TemperatureF,Dew PointF,Humidity,Sea Level PressureIn,VisibilityMPH,Wind Direction,Wind SpeedMPH,Gust SpeedMPH,PrecipitationIn,Events,Conditions,WindDirDegrees,DateUTC
12:53 AM,7.0,-4.9,58,30.18,10.0,ENE,9.2,-,N/A,,Scattered Clouds,70,2012-11-19 09:53:00
1:53 AM,4.1,-5.8,64,30.19,10.0,Calm,Calm,-,N/A,,Partly Cloudy,0,2012-11-19 10:53:00
3:53 AM,5.0,-5.8,61,30.22,10.0,ENE,8.1,-,N/A,,Clear,70,2012-11-19 12:53:00
4:53 AM,5.0,-5.8,61,30.22,10.0,ENE,5.8,-,N/A,,Clear,60,2012-11-19 13:53:00
5:53 AM,7.0,-5.8,56,30.23,10.0,NNW,5.8,-,N/A,,Clear,330,2012-11-19 14:53:00
6:53 AM,10.0,-4.0,53,30.25,10.0,Variable,6.9,-,N/A,,Clear,0,2012-11-19 15:53:00
7:53 AM,9.0,-4.0,56,30.26,10.0,North,5.8,-,N/A,,Clear,360,2012-11-19 16:53:00
8:53 AM,6.1,-4.0,63,30.27,10.0,NNE,3.5,-,N/A,,Clear,20,2012-11-19 17:53:00
9:53 AM,5.0,-4.0,66,30.28,10.0,WNW,3.5,-,N/A,,Clear,300,2012-11-19 18:53:00
10:53 AM,1.9,-6.0,69,30.28,10.0,WNW,3.5,-,N/A,,Clear,300,2012-11-19 19:53:00
11:53 AM,1.9,-6.0,69,30.29,10.0,Calm,Calm,-,N/A,,Clear,0,2012-11-19 20:53:00
12:53 PM,7.0,-5.1,58,30.28,10.0,Variable,3.5,-,N/A,,Clear,0,2012-11-19 21:53:00
1:53 PM,8.1,-4.0,58,30.28,10.0,Calm,Calm,-,N/A,,Clear,0,2012-11-19 22:53:00
2:53 PM,9.0,-2.9,59,30.29,10.0,Calm,Calm,-,N/A,,Clear,0,2012-11-19 23:53:00
3:53 PM,10.0,-4.0,53,30.27,10.0,Calm,Calm,-,N/A,,Clear,0,2012-11-20 00:53:00
4:53 PM,8.1,-6.0,53,30.27,10.0,NNW,6.9,-,N/A,,Partly Cloudy,330,2012-11-20 01:53:00
5:53 PM,6.1,-7.1,55,30.28,10.0,North,3.5,-,N/A,,Partly Cloudy,10,2012-11-20 02:53:00
6:53 PM,6.1,-7.1,55,30.29,10.0,North,6.9,-,N/A,,Scattered Clouds,10,2012-11-20 03:53:00
7:53 PM,1.9,-7.1,66,30.30,10.0,Calm,Calm,-,N/A,,Scattered Clouds,0,2012-11-20 04:53:00
8:53 PM,7.0,-8.0,51,30.30,10.0,NNE,3.5,-,N/A,,Scattered Clouds,20,2012-11-20 05:53:00
9:53 PM,6.1,-7.1,55,30.30,10.0,North,4.6,-,N/A,,Scattered Clouds,350,2012-11-20 06:53:00
10:53 PM,7.0,-7.1,53,30.30,10.0,North,5.8,-,N/A,,Scattered Clouds,360,2012-11-20 07:53:00
11:53 PM,5.0,-7.1,58,30.30,10.0,North,4.6,-,N/A,,Scattered Clouds,350,2012-11-20 08:53:00